[[{"header":{"parameterUnit":"m.s-1","parameterCategory":1,"la1":30.2991,"la2":30.254,"lo1":-89.0895,"lo2":-89.0444,"dy":0.0017,"dx":0.0017,"nx":28,"ny":28,"refTime":"2025-04-23T21:00:00:Z","depth":0,"parameterNumber":2,"parameterNumberName":"U-component_of_WINDS"},"data":[0,0,0,0,0,0,0,0,0,0,0,0,0,0,0,0,0,0,0,0,0,0,0,0,0,0,0,0,0,0,0,0,0,0,0,0,0,0,0,0,0,0,0,0,0,0,0,0,0,0,0,0,0,0,0,0,0,0,-2.1112,-2.1112,0,-2.113,-2.113,-2.113,-2.1102,-2.1101,-2.11,-2.1099,-2.1119,-2.112,-2.1122,0,0,0,0,0,0,0,0,0,0,0,0,0,-2.1055,-2.1056,-2.1112,-2.1112,-2.1112,-2.113,-2.113,-2.113,-2.1102,-2.1101,-2.11,-2.1099,-2.1119,-2.112,-2.1122,0,0,0,0,0,0,0,0,0,0,0,0,0,-2.1077,-2.1056,-2.1112,-2.11,-2.1099,-2.113,-2.113,-2.113,-2.1102,-2.1101,-2.1099,-2.1098,-2.1118,-2.112,-2.1122,-2.1165,0,0,-2.1129,-2.113,0,0,0,0,0,0,0,0,-2.1076,-2.1079,-2.1102,-2.1101,-2.11,-2.1112,-2.1117,-2.1142,-2.1103,-2.1101,-2.1099,-2.1097,-2.1118,-2.112,-2.1127,-2.1166,-2.1167,-2.1129,-2.113,-2.1131,-2.1132,0,0,0,0,0,0,0,-2.1074,-2.1078,-2.1119,-2.1102,-2.1101,-2.1095,-2.1096,-2.1122,-2.1118,-2.1101,-2.1099,-2.1102,-2.1117,-2.1125,-2.1127,-2.1167,-2.1129,-2.1131,-2.1132,-2.1133,-2.1244,-2.1246,0,0,0,0,0,0,-2.1074,-2.1077,-2.1118,-2.1119,-2.1084,-2.1097,-2.1099,-2.111,-2.1117,-2.1117,-2.1103,-2.11,-2.1122,-2.1125,-2.1128,-2.1179,-2.1131,-2.1133,-2.1135,-2.1243,-2.1245,-2.1246,0,0,0,0,0,0,-2.1073,-2.1078,-2.1118,-2.1098,-2.1102,-2.11,-2.1112,-2.1111,-2.1118,-2.1119,-2.1118,-2.1111,-2.1121,-2.1125,-2.1156,-2.1179,-2.1134,-2.1136,-2.1241,-2.1243,-2.1246,-2.1281,0,0,0,0,0,0,-2.1071,-2.1077,-2.1093,-2.1098,-2.1103,-2.1145,-2.1114,-2.1112,-2.1122,-2.1119,-2.1126,-2.1126,-2.112,-2.1153,-2.1158,-2.1181,-2.1138,-2.1239,-2.1242,-2.1245,-2.1278,-2.1284,-2.129,0,0,0,0,0,-2.1069,-2.1102,-2.1094,-2.1099,-2.1123,-2.1147,-2.115,-2.1141,-2.1124,-2.114,-2.1141,-2.1126,-2.1176,-2.1157,-2.1162,-2.1186,-2.1237,-2.1241,-2.1245,-2.1275,-2.1283,-2.129,0,0,0,0,0,0,-2.11,-2.1103,-2.1093,-2.1129,-2.1138,-2.1142,-2.1161,-2.115,-2.1164,-2.116,-2.1151,-2.1152,-2.1187,-2.119,-2.1168,-2.1229,-2.1204,-2.1209,-2.1225,-2.1233,-2.1239,-2.1237,-2.114,0,0,0,0,0,-2.1111,-2.1129,-2.1131,-2.1163,-2.1167,-2.1164,-2.1174,-2.1167,-2.1176,-2.1179,-2.1182,-2.1192,-2.121,-2.1222,-2.1238,-2.1279,-2.128,-2.1298,-2.1305,-2.131,-2.1314,-2.1336,-2.1344,-2.1259,-2.1259,-2.1259,0,0,-2.1133,-2.1137,-2.1149,-2.1169,-2.1175,-2.1195,-2.1167,-2.1189,-2.1204,-2.1183,-2.1212,-2.1216,-2.1226,-2.1262,-2.1278,-2.1266,-2.1338,-2.1314,-2.1318,-2.132,-2.1341,-2.1349,-2.1356,-2.1261,-2.1261,-2.126,0,0,-2.1184,-2.1189,-2.1216,-2.1223,-2.1232,-2.123,-2.1237,-2.1243,-2.1244,-2.1274,-2.1259,-2.1277,-2.1308,-2.1316,-2.1324,-2.1381,-2.1368,-2.1387,-2.1419,-2.1441,-2.1448,-2.1453,-2.1474,-2.1481,-2.1392,-2.1392,-2.1392,0,-2.1211,-2.124,-2.1232,-2.1255,-2.1264,-2.1247,-2.1274,-2.1281,-2.1296,-2.1303,-2.1289,-2.1329,-2.1334,-2.1373,-2.1387,-2.1394,-2.1402,-2.1385,-2.1447,-2.1453,-2.1458,-2.1478,-2.1485,-2.1394,-2.1394,-2.1393,-2.1393,0,-2.1273,-2.1293,-2.1314,-2.1328,-2.134,-2.1366,-2.1362,-2.1375,-2.1369,-2.1368,-2.14,-2.1406,-2.1424,-2.1433,-2.1426,-2.1471,-2.1463,-2.1449,-2.1423,-2.1469,-2.1487,-2.1494,-2.1397,-2.1396,-2.1395,-2.1395,0,0,-2.1341,-2.1352,-2.136,-2.1367,-2.1377,-2.1393,-2.1419,-2.1436,-2.1448,-2.1459,-2.1481,-2.1508,-2.1495,-2.1505,-2.1499,-2.1519,-2.1564,-2.1502,-2.1502,-2.1512,-2.1614,-2.1624,-2.1633,-2.1556,-2.1557,-2.1559,-2.1613,0,-2.1392,-2.1435,-2.1429,-2.1471,-2.149,-2.1475,-2.1497,-2.1507,-2.1508,-2.1525,-2.1527,-2.1546,-2.1527,-2.1533,-2.1552,-2.1554,-2.1584,-2.155,-2.1576,-2.1577,-2.1573,-2.1642,-2.1653,-2.1704,-2.162,-2.1621,-2.1622,0,-2.1456,-2.147,-2.1513,-2.1522,-2.153,-2.155,-2.1566,-2.1583,-2.1594,-2.1593,-2.1605,-2.1596,-2.1623,-2.1598,-2.1635,-2.1613,-2.1624,-2.1627,-2.1628,-2.1629,-2.1601,-2.1644,-2.172,-2.1727,-2.1633,-2.1632,-2.1631,0,-2.1501,-2.1531,-2.1561,-2.1568,-2.1578,-2.1593,-2.1598,-2.1607,-2.1619,-2.1634,-2.1641,-2.1659,-2.1669,-2.1683,-2.1681,-2.1663,-2.1719,-2.1694,-2.1719,-2.1719,-2.173,-2.1729,-2.1808,-2.1739,-2.1739,-2.1739,-2.1739,0,-2.1557,-2.1585,-2.1582,-2.16,-2.1631,-2.1625,-2.1655,-2.1659,-2.1668,-2.1687,-2.1676,-2.1695,-2.169,-2.1709,-2.1708,-2.1739,-2.1744,-2.1745,-2.1743,-2.1745,-2.1745,-2.1751,-2.1747,-2.1741,-2.1741,-2.174,-2.174,0,-2.1612,-2.1611,-2.1643,-2.1651,-2.1654,-2.1676,-2.1683,-2.1701,-2.1702,-2.1727,-2.1733,-2.1735,-2.1757,-2.1756,-2.1781,-2.178,-2.1818,-2.1814,-2.1814,-2.1813,-2.1838,-2.1836,-2.1922,-2.1933,-2.1859,-2.1859,-2.186,0,-2.1647,-2.1668,-2.1679,-2.1691,-2.1697,-2.1717,-2.1729,-2.1724,-2.1737,-2.1752,-2.1769,-2.179,-2.1806,-2.1842,-2.1846,-2.1866,-2.1861,-2.189,-2.1864,-2.1865,-2.1861,-2.186,-2.1862,-2.1895,-2.1896,-2.1897,-2.1897,0,-2.171,-2.1709,-2.1726,-2.1744,-2.1758,-2.1772,-2.1784,-2.1795,-2.1793,-2.1808,-2.183,-2.1843,-2.1869,-2.189,-2.1909,-2.1916,-2.1906,-2.1906,-2.1913,-2.1913,-2.1913,-2.1913,-2.1827,-2.1903,-2.1903,-2.1902,-2.1902,-2.1902,-2.1756,-2.1774,-2.1784,-2.1804,-2.1813,-2.1826,-2.1843,-2.1847,-2.1865,-2.1885,-2.1883,-2.1908,-2.192,-2.1945,-2.1953,-2.1973,-2.1963,-2.1973,-2.1976,-2.1978,-2.198,-2.1911,-2.1977,-2.1977,-2.1977,-2.1977,-2.1976,0,-2.1818,-2.1824,-2.1843,-2.186,-2.1877,-2.1867,-2.1881,-2.1895,-2.1917,-2.1929,-2.1946,-2.1972,-2.1993,-2.2,-2.202,-2.2035,-2.2032,-2.2041,-2.2039,-2.2041,-2.1989,-2.198,-2.2044,-2.2044,-2.2044,-2.2044,-2.2044,-2.2044,-2.1851,-2.1881,-2.1882,-2.1917,-2.1923,-2.1948,-2.1956,-2.1968,-2.1978,-2.2008,-2.2025,-2.2029,-2.204,-2.2061,-2.2081,-2.2082,-2.209,-2.2101,-2.2101,-2.2051,-2.2045,-2.2038,-2.203,-2.2103,-2.2103,-2.2151,-2.2152,-2.2152]},{"header":{"parameterUnit":"m.s-1","parameterCategory":1,"la1":30.2991,"la2":30.254,"lo1":-89.0895,"lo2":-89.0444,"dy":0.0017,"dx":0.0017,"nx":28,"ny":28,"refTime":"2025-04-23T21:00:00:Z","depth":0,"parameterNumber":3,"parameterNumberName":"V-component_of_WINDS"},"data":[0,0,0,0,0,0,0,0,0,0,0,0,0,0,0,0,0,0,0,0,0,0,0,0,0,0,0,0,0,0,0,0,0,0,0,0,0,0,0,0,0,0,0,0,0,0,0,0,0,0,0,0,0,0,0,0,0,0,1.1399,1.14,0,1.1459,1.146,1.146,1.1522,1.1523,1.1524,1.1525,1.1585,1.1586,1.1587,0,0,0,0,0,0,0,0,0,0,0,0,0,1.1338,1.1339,1.1399,1.14,1.1401,1.1459,1.146,1.146,1.1522,1.1523,1.1524,1.1525,1.1585,1.1586,1.1587,0,0,0,0,0,0,0,0,0,0,0,0,0,1.1378,1.1339,1.1399,1.1438,1.1443,1.1459,1.146,1.1461,1.1522,1.1523,1.1525,1.1526,1.1585,1.1586,1.1587,1.1569,0,0,1.1591,1.1591,0,0,0,0,0,0,0,0,1.1375,1.138,1.1432,1.1436,1.144,1.1485,1.146,1.1497,1.1522,1.1492,1.1525,1.1526,1.1551,1.1555,1.1563,1.1571,1.1574,1.1591,1.1591,1.1592,1.1592,0,0,0,0,0,0,0,1.1373,1.1378,1.1423,1.1433,1.1438,1.1453,1.146,1.1468,1.1513,1.1494,1.1499,1.1505,1.1553,1.1562,1.1565,1.1575,1.1591,1.1592,1.1592,1.1593,1.1572,1.1571,0,0,0,0,0,0,1.1364,1.1375,1.1421,1.1425,1.141,1.1453,1.1461,1.1469,1.1513,1.1521,1.1504,1.1508,1.1559,1.1563,1.1567,1.1549,1.1592,1.1593,1.1594,1.1574,1.1572,1.1571,0,0,0,0,0,0,1.1362,1.1367,1.1418,1.1401,1.1409,1.1453,1.1461,1.147,1.1478,1.1521,1.1529,1.1505,1.156,1.1565,1.1568,1.1552,1.1594,1.1595,1.1575,1.1573,1.1571,1.1512,0,0,0,0,0,0,1.136,1.1367,1.136,1.1401,1.1409,1.1418,1.146,1.147,1.148,1.1486,1.1523,1.1531,1.1562,1.1566,1.1569,1.1555,1.1596,1.1577,1.1574,1.1572,1.1516,1.1509,1.1503,0,0,0,0,0,1.1358,1.134,1.1359,1.1364,1.1402,1.1417,1.1422,1.1458,1.1479,1.1472,1.15,1.1529,1.1553,1.1566,1.157,1.1555,1.1578,1.1575,1.1572,1.1519,1.151,1.1503,0,0,0,0,0,0,1.1296,1.1346,1.1368,1.1363,1.1385,1.1427,1.1421,1.1448,1.1464,1.1469,1.1513,1.1521,1.1518,1.1537,1.155,1.1541,1.157,1.1568,1.1528,1.152,1.1513,1.1509,1.1597,0,0,0,0,0,1.1282,1.129,1.1334,1.1325,1.1335,1.1376,1.1384,1.141,1.1435,1.1444,1.1472,1.1495,1.1508,1.1515,1.1529,1.1519,1.1529,1.1512,1.1505,1.1499,1.1497,1.1494,1.1487,1.1561,1.1561,1.1561,0,0,1.1253,1.1281,1.1284,1.1313,1.1334,1.1341,1.1383,1.1389,1.1395,1.1445,1.1449,1.147,1.1499,1.1495,1.1495,1.1511,1.1478,1.1495,1.1491,1.1491,1.149,1.1483,1.1476,1.1559,1.156,1.156,0,0,1.1203,1.1225,1.1221,1.1241,1.1272,1.1299,1.1298,1.1336,1.1353,1.1358,1.1396,1.1403,1.1424,1.1443,1.1456,1.1415,1.1442,1.1418,1.1383,1.1379,1.1373,1.1368,1.1354,1.1348,1.1415,1.1415,1.1415,0,1.1163,1.1175,1.1215,1.1219,1.1231,1.1278,1.1274,1.1291,1.1325,1.1332,1.1349,1.1378,1.14,1.1402,1.1392,1.14,1.1401,1.1413,1.1371,1.1366,1.1362,1.1349,1.1343,1.1412,1.1412,1.1413,1.1413,0,1.1124,1.1133,1.1126,1.1157,1.1169,1.1169,1.1209,1.1216,1.1241,1.1267,1.1272,1.13,1.1321,1.1324,1.1348,1.133,1.1339,1.1363,1.1393,1.1351,1.134,1.1335,1.1407,1.1409,1.141,1.141,0,0,1.1036,1.1091,1.1088,1.1103,1.1141,1.1148,1.1151,1.1172,1.1177,1.1199,1.1202,1.1219,1.1242,1.1256,1.1284,1.1281,1.1247,1.1306,1.1307,1.1294,1.1228,1.121,1.1203,1.1266,1.1265,1.1264,1.1226,0,1.0993,1.1,1.1037,1.1033,1.1042,1.1087,1.1089,1.1112,1.1136,1.1147,1.1174,1.1186,1.1215,1.1224,1.1223,1.1251,1.1234,1.1254,1.1269,1.1269,1.126,1.1197,1.1177,1.1139,1.1222,1.1221,1.122,0,1.0943,1.0963,1.096,1.0999,1.1004,1.1005,1.1028,1.1038,1.1065,1.1083,1.1099,1.1131,1.1136,1.1165,1.1173,1.1186,1.1194,1.1209,1.1208,1.1211,1.1242,1.1198,1.1128,1.1122,1.1214,1.1214,1.1215,0,1.088,1.0905,1.0907,1.0919,1.0964,1.0964,1.0983,1.1012,1.1023,1.1043,1.105,1.107,1.1081,1.1096,1.1132,1.115,1.1136,1.1168,1.1151,1.115,1.1146,1.1146,1.1077,1.1151,1.1151,1.1152,1.1152,0,1.0827,1.0824,1.0879,1.088,1.0878,1.092,1.0917,1.094,1.0966,1.0972,1.1013,1.1018,1.1065,1.1076,1.1104,1.1106,1.1111,1.1126,1.1133,1.1122,1.112,1.1128,1.1131,1.115,1.115,1.1151,1.1151,0,1.0755,1.0792,1.0797,1.084,1.0851,1.0847,1.0884,1.0887,1.0914,1.0922,1.0926,1.0969,1.0984,1.1021,1.1045,1.1064,1.106,1.1073,1.105,1.1055,1.1036,1.1037,1.0969,1.0963,1.1041,1.1041,1.104,0,1.0719,1.0718,1.0761,1.0768,1.0786,1.0797,1.0809,1.0851,1.0861,1.0893,1.0892,1.0911,1.0927,1.0949,1.0982,1.1001,1.1016,1.0991,1.1019,1.1008,1.1016,1.1015,1.1016,1.0984,1.0983,1.0982,1.0982,0,1.0652,1.0671,1.0686,1.0707,1.072,1.0739,1.076,1.0764,1.0811,1.0821,1.0837,1.085,1.0876,1.0893,1.0918,1.0937,1.0967,1.0973,1.097,1.0958,1.0945,1.0952,1.1033,1.0974,1.0975,1.0975,1.0976,1.0976,1.0597,1.0598,1.0629,1.0645,1.0665,1.0684,1.0689,1.0718,1.0732,1.0756,1.078,1.0794,1.0823,1.0859,1.0877,1.0888,1.0904,1.0899,1.0898,1.0897,1.0892,1.0943,1.0893,1.0893,1.0893,1.0894,1.0894,0,1.0532,1.0554,1.0568,1.0597,1.0609,1.0637,1.0663,1.0671,1.0683,1.0707,1.0723,1.0742,1.076,1.0795,1.0816,1.0818,1.0832,1.0822,1.0822,1.0826,1.0877,1.0877,1.081,1.081,1.081,1.081,1.081,1.081,1.0499,1.0503,1.0525,1.054,1.0562,1.0576,1.0588,1.0606,1.0626,1.0646,1.0661,1.0684,1.0713,1.0736,1.0754,1.0764,1.0769,1.0755,1.0769,1.0815,1.0823,1.083,1.0831,1.0756,1.0755,1.0718,1.0718,1.0717]}]]